Погода в Керчи

Погода в Керчи : погода сейчас, прогноз погоды и архив. Всё, что Вы хотите узнать о погоде в Керчи!

Поиск расширенной информации на нашем сайте:

Другие новости

Новости СМИ2

Главная страница сайта

Новости сайта

03.07.2017

Напоминаем, что на нашем специализированном сайте Метеоцентр.Азия вы можете получить высокодетализированные автоматические прогнозы погоды по пунктам России, СНГ и мира в авиационном формате (включающие направление и скорость ветра, видимость, явления погоды, количество и форму облачности, нижнюю и верхнюю границу облачности).


Погода в Керчи - сегодня

Время (UTC), дата Ветер
(°,м/с) 
Видим.   Явления Облачность Т
(°С)
Тd
(°С)
f(%) Тe
(°С)
Pmin
(гПа)
dP
(гПа)
Po
(мм)
O2
(г/м3)
Тmin Tmax R s Состояние
почвы
03 17.04.18 тихо ()   4000 м  дымка{туман}  ясно 
+5.9 +5.4 97 +6  1022.5  762  300  +4.7         
06 17.04.18 120 (ЮВ) 10 км    3/0 верхняя 
[Ci fib]
+14.3 +5.5 55 +16  1022.8  0.5  763  291  +4.7        сухая 
09 17.04.18 120 (ЮВ) 10 км    8/0 верхняя 
[Ci fib]
+18.6 +1.6 32 +19  1022.4  -0.4  762  287           
12 17.04.18 040 (СВ) 10 км    9/0 верхняя 
[Ci fib]
+19.6 +3.7 35 +20  1022.1  -0.2  762  286           
18 17.04.18 040 (СВ) 10 км    9/0 средняя, верхняя 
[Ac trans|Ci fib]
+11.6 +0.5 46 +13  1022  0.2  762  294    +20.5       
21 17.04.18 тихо ()   10 км    9/0 средняя, верхняя 
[Ac trans|Ci fib]
+9 +2.6 64 +9  1022.2  0.1  762  297           
00 18.04.18 тихо ()   10 км    9/0 средняя, верхняя 
[Ac trans|Ci fib]
+10.4 +3.7 63 +10  1021.8  -0.3  762  295           
03 18.04.18 тихо ()   10 км    9/0 средняя, верхняя 
[Ac trans|Ci fib]
+10.2 +4.9 70 +10  1021.9  0.1  762  295  +7.9         
06 18.04.18 тихо ()   10 км    10/0 средняя, верхняя 
[Ac trans|Ci fib]
+14.2 +5.3 55 +14  1022.6  0.8  763  291  +7.9         
09 18.04.18 тихо ()   10 км    10/0 верхняя 
[Ci fib]
+20.4 +6.3 40 +20  1022.4  -0.1  762  285           
12 18.04.18 150 (ЮВ) 10 км    6/0 верхняя 
[Ci fib]
+21.8 +9.6 46 +22  1021  -1.4  761  282           
15 18.04.18 170 (Ю) 10 км    ясно 
+18.8 +9.8 56 +20  1019.8  -1.2  761  285           
18 18.04.18 250 (З) 10 км    6/0 средняя 
[Ac trans]
+13.8 +8 68 +13  1019.4  -0.5  760  290    +22.7       
21 18.04.18 290 (З) 10 км    6/0 средняя 
[Ac trans]
+12.9 +8.5 75 +12  1018.6  -0.8  760  291           
00 19.04.18 260 (З) 10 км    8/0 средняя 
[Ac trans]
+12.1 +8.9 81 +12  1017.4  -1.2  759  291           
03 19.04.18 280 (З) 10 км    6/0 средняя, верхняя 
[Ac trans|Ci fib]
+10.7 +8.7 87 +9  1016.6  -0.9  758  292  +10.6         
06 19.04.18 260 (З) 10 км    8/3 600 м верхняя 
[Sc|Ci fib]
+15.5 +9.3 67 +15  1014.9  -1.6  757  287  +10.4         
15 19.04.18 290 (З) 8-12  10 км  слаб. ливневой дождь  8/6 600 м кучево-дожд., средняя 
[Cb cap|Ac trans]
+13.3 +8.1 71 +12  1010.2  -1.2  753  288      0.0     
18 19.04.18 250 (З) 10 км  {ливн. осадки}  8/8 600 м 
[Sc]
+11.7 +9.6 87 +13  1009.7  -0.5  753  289    +18.5  0.3     
21 19.04.18 300 (СЗ) 10 км  в посл. час ливневой дождь  8/6 600 м кучево-дожд., средняя 
[Cb cap|Ac trans]
+10.4 +8.8 90 +11  1009.3  -0.4  753  291           
06 20.04.18 310 (СЗ) 10 км  {ливн. осадки}  10/6 600 м кучево-дожд., средняя 
[Cb calv|Ac und]
+10 +8 87 +9  1008.7  0.8  752  291  +8       
09 20.04.18 320 (СЗ) 6-10{11}  10 км    9/8 600 м средняя 
[Sc|Ac trans]
+10.6 +7.7 82 +9  1010.5  1.8  753  291           
15 20.04.18 300 (СЗ) 3{12}  10 км    8/4 600 м средняя 
[Sc|Ac trans]
+12.3 +6.7 69 +12  1012.3  0.8  755  290      0.0     
18 20.04.18 300 (СЗ) 10 км    5/3 600 м средняя 
[Sc|Ac trans]
+11 +6.7 75 +10  1014.2  1.8  756  292    +14.9       
21 20.04.18 350 (С) 10 км    8/0 средняя 
[Ac trans]
+9.8 +6.6 80 +9  1014.8  0.6  757  293           
Время (UTC), дата Ветер
(°,м/с) 
Видим.   Явления Облачность Т
(°С)
Тd
(°С)
f(%) Тe
(°С)
Pmin
(гПа)
dP
(гПа)
Po
(мм)
O2
(г/м3)
Тmin Tmax R s Состояние
почвы

Для получения пояснительной информации подведите курсор к названию столбца.

ПОГОДА в Керчи - архив

Всё, что Вы хотите узнать о погоде в Керчи - удобно и подробно!

Выберите нужную дату (начиная с 1 января 2015* года) и нажмите кнопку "Найти".
Будут отображены архивные сводки погоды по пункту Керчь, начиная с указанной даты.


Отображать данные в формате CSV (для использования в таблицах Excel)


Внимание! Наш архив погоды предназначен исключительно для личного некоммерческого использования в познавательных целях. Если Вам необходимы официальные справки о состоянии погоды (для производственных, юридических, коммерческих и т.п. целей), обращайтесь в органы Росгидромета.

*Примечание: данная дата относится к архиву по метеостанциям СССР (Россия, СНГ, Балтия).
Архив по метеостанциям Зарубежной Европы и Азии (кроме Китая) хранится 10 дней, по другим регионам земного шара (Китай, Африка, Америка, Австралия, Океания) - 1 день.

Керчь - район местоположения метеостанции


Название, широта, долгота, высота метеостанции:
Керчь 45.4°ш. 36.4°д. 49 м над ур. моря [Российская Федерация]

Дополнительная информация

В oтличие oт бoльшинства пoгoдных сайтoв мы публикуем пoдрoбную метеoинфoрмацию в детальнoм прoфессиoнальнoм фoрмате.

Характеристики температуры и влажнoсти вoздуха измеряются на высoте 2 м в тени вдали oт зданий и деревьев.
Скoрoсть ветра измеряется на высoте 10 м (на урoвне рoста челoвека скoрoсть ветра ниже в 1.5-2 раза). Если метеoстанция нахoдится в гoрoде или в лесу, тo скoрoсть ветра занижена на 2-4 м/с пo сравнению с oткрытым местoм. Скoрoсть ветра над акватoриями крупных рек и oзёр, а также на вершинах хoлмoв на 2-5 м/с выше, чем в oбычных услoвиях.
Атмoсфернoе давление в разных тoчках местнoсти мoжет значительнo oтличаться oт давления на метеoстанции, в зависимoсти oт услoвий рельефа (при пoдъёме на 10 м давление пoнижается примернo на 1 мм рт.ст.).